YAOGAN-43 02B (60946 NORAD) Tracking and Keplerian Element Data

This shows tracking and keplerian element data for the satellite.

Feedback or suggestion? Click here.




ElementValue
Catalog60946
NameYAOGAN-43 02B
Epoch Orbit597
Epoch Day286.47744155
Epoch Year2024
RAAN91.5605
Inclination34.995
Eccentricity0.0002347
Argument of Perigee3.763
Mean Anonmoly356.3102
Mean Motion15.23610788
Decay Rate0.00034906
L11 60946U 24156B 24286.47744155 .00034906 00000+0 14176-2 0 9994
L22 60946 34.9950 91.5605 0002347 3.7630 356.3102 15.23610788 5970



Live tracking and technical data element details for YAOGAN-43 02B (NORAD 60946). YAOGAN-43 02B can be tracked NOW for your location showing map with azimuth and elevation plus other details from your city location.







IsCatalogInMostPopularTable: catalog: 60946, numindb: 7
Update: records affected: 1



GetName: 60946 YAOGAN-43 02B

Hit Count: updated at: Wed, 04 Dec 2024 19:50:01 GMT